TimeMST,TemperatureF,Dew PointF,Humidity,Sea Level PressureIn,VisibilityMPH,Wind Direction,Wind SpeedMPH,Gust SpeedMPH,PrecipitationIn,Events,Conditions,WindDirDegrees,DateUTC
12:58 AM,36.0,25.7,66,29.68,10.0,West,5.8,-,N/A,,Clear,270,2013-11-20 07:58:00
1:58 AM,33.6,24.4,69,29.71,10.0,West,6.9,-,N/A,,Partly Cloudy,260,2013-11-20 08:58:00
2:58 AM,34.0,24.4,68,29.73,10.0,West,6.9,-,N/A,,Scattered Clouds,270,2013-11-20 09:58:00
3:58 AM,33.3,24.6,71,29.73,10.0,WNW,6.9,-,N/A,,Clear,290,2013-11-20 10:58:00
4:58 AM,33.4,25.2,72,29.76,10.0,West,4.6,-,N/A,,Clear,280,2013-11-20 11:58:00
5:58 AM,38.8,26.6,61,29.78,10.0,North,20.7,-,N/A,,Clear,360,2013-11-20 12:58:00
6:58 AM,33.4,27.1,78,29.85,10.0,North,20.7,-,N/A,,Clear,360,2013-11-20 13:58:00
7:58 AM,29.5,26.4,88,29.89,10.0,North,13.8,-,N/A,,Clear,350,2013-11-20 14:58:00
8:06 AM,28.4,26.6,93,29.81,10.0,North,15.0,-,N/A,,Partly Cloudy,350,2013-11-20 15:06:00
8:16 AM,28.4,26.6,93,29.81,10.0,North,15.0,-,N/A,,Mostly Cloudy,360,2013-11-20 15:16:00
8:49 AM,28.4,26.6,93,29.82,1.5,North,13.8,-,N/A,,Overcast,360,2013-11-20 15:49:00
8:59 AM,28.6,26.6,92,29.90,1.5,North,17.3,20.7,N/A,,Overcast,10,2013-11-20 15:59:00
9:03 AM,28.4,26.6,93,29.82,2.0,North,15.0,-,N/A,,Overcast,10,2013-11-20 16:03:00
9:14 AM,28.4,26.6,93,29.82,2.0,NNE,12.7,-,N/A,,Overcast,20,2013-11-20 16:14:00
9:24 AM,28.4,26.6,93,29.82,1.0,North,18.4,-,N/A,,Overcast,10,2013-11-20 16:24:00
9:29 AM,28.4,26.6,93,29.82,0.8,North,17.3,-,N/A,,Overcast,360,2013-11-20 16:29:00
9:34 AM,28.4,26.6,93,29.83,1.0,North,16.1,-,N/A,,Overcast,10,2013-11-20 16:34:00
9:39 AM,28.4,26.6,93,29.83,0.5,North,17.3,-,N/A,,Overcast,10,2013-11-20 16:39:00
9:44 AM,28.4,26.6,93,29.83,0.5,NNE,16.1,-,N/A,Fog,Fog,20,2013-11-20 16:44:00
9:58 AM,27.5,25.7,93,29.92,0.5,North,15.0,-,N/A,Fog,Fog,10,2013-11-20 16:58:00
10:13 AM,28.4,26.6,93,29.83,0.8,North,16.1,-,N/A,,Overcast,10,2013-11-20 17:13:00
10:18 AM,28.4,26.6,93,29.84,1.5,NNE,16.1,-,N/A,,Overcast,20,2013-11-20 17:18:00
10:23 AM,28.4,24.8,86,29.84,2.0,North,15.0,-,N/A,,Overcast,10,2013-11-20 17:23:00
10:33 AM,28.4,24.8,86,29.83,2.0,North,15.0,-,N/A,,Overcast,10,2013-11-20 17:33:00
10:48 AM,28.4,24.8,86,29.84,1.0,North,11.5,-,N/A,,Overcast,360,2013-11-20 17:48:00
10:59 AM,26.6,24.8,93,29.94,0.8,NNE,10.4,-,N/A,,Overcast,20,2013-11-20 17:59:00
11:04 AM,26.6,24.8,93,29.83,1.0,NNE,10.4,-,N/A,,Overcast,20,2013-11-20 18:04:00
11:19 AM,26.6,24.8,93,29.82,2.0,NNE,11.5,-,N/A,,Overcast,20,2013-11-20 18:19:00
11:58 AM,26.2,24.3,92,29.91,2.0,NNE,8.1,-,N/A,,Overcast,20,2013-11-20 18:58:00
12:18 PM,26.6,24.8,93,29.80,3.0,NE,8.1,-,N/A,,Overcast,40,2013-11-20 19:18:00
12:58 PM,26.2,23.7,90,29.88,4.0,East,2.3,-,N/A,,Overcast,80,2013-11-20 19:58:00
1:58 PM,26.6,23.9,90,29.91,5.0,North,10.4,-,N/A,,Overcast,10,2013-11-20 20:58:00
2:48 PM,26.6,23.0,86,29.86,10.0,North,23.0,26.5,N/A,,Overcast,10,2013-11-20 21:48:00
2:58 PM,26.2,22.3,85,29.98,7.0,North,20.7,-,N/A,,Overcast,360,2013-11-20 21:58:00
3:03 PM,26.6,23.0,86,29.88,7.0,North,23.0,27.6,N/A,,Overcast,360,2013-11-20 22:03:00
3:18 PM,26.6,23.0,86,29.90,5.0,North,24.2,29.9,N/A,,Overcast,360,2013-11-20 22:18:00
3:43 PM,26.6,23.0,86,29.93,4.0,North,19.6,27.6,N/A,,Overcast,350,2013-11-20 22:43:00
3:58 PM,26.1,23.9,92,30.04,4.0,NNW,25.3,31.1,0.00,,Overcast,340,2013-11-20 22:58:00
4:49 PM,24.8,17.6,74,30.00,10.0,North,31.1,39.1,N/A,,Overcast,360,2013-11-20 23:49:00
4:58 PM,25.0,16.5,70,30.13,10.0,North,29.9,39.1,0.00,,Overcast,360,2013-11-20 23:58:00
5:16 PM,23.0,15.8,74,30.03,10.0,North,27.6,39.1,N/A,,Overcast,350,2013-11-21 00:16:00
5:18 PM,23.0,14.0,68,30.04,10.0,North,32.2,39.1,N/A,,Overcast,350,2013-11-21 00:18:00
5:21 PM,23.0,14.0,68,30.04,10.0,North,31.1,41.4,N/A,,Squalls,350,2013-11-21 00:21:00
5:31 PM,21.2,14.0,74,30.05,10.0,North,32.2,40.3,N/A,,Overcast,360,2013-11-21 00:31:00
5:32 PM,21.2,14.0,74,30.05,10.0,North,32.2,40.3,N/A,Snow,Light Snow,360,2013-11-21 00:32:00
5:36 PM,21.2,14.0,74,30.06,10.0,North,29.9,40.3,N/A,Snow,Light Snow,360,2013-11-21 00:36:00
5:51 PM,19.4,12.2,74,30.06,10.0,North,26.5,36.8,N/A,Snow,Light Snow,360,2013-11-21 00:51:00
5:58 PM,19.6,12.4,74,30.17,10.0,North,26.5,34.5,0.00,Snow,Light Snow,360,2013-11-21 00:58:00
5:59 PM,19.4,12.2,74,30.06,10.0,North,24.2,33.4,N/A,,Overcast,360,2013-11-21 00:59:00
6:00 PM,19.4,12.2,74,30.07,10.0,North,26.5,33.4,N/A,,Overcast,360,2013-11-21 01:00:00
6:10 PM,19.4,12.2,74,30.07,10.0,North,23.0,33.4,N/A,,Overcast,350,2013-11-21 01:10:00
6:20 PM,19.4,14.0,80,30.08,7.0,North,23.0,28.8,N/A,Snow,Light Snow,350,2013-11-21 01:20:00
6:25 PM,19.4,14.0,80,30.08,5.0,NNW,26.5,29.9,N/A,Snow,Light Snow,340,2013-11-21 01:25:00
6:30 PM,19.4,14.0,80,30.08,5.0,NNW,31.1,38.0,N/A,Snow,Light Snow,340,2013-11-21 01:30:00
6:50 PM,17.6,10.4,73,30.09,10.0,North,25.3,38.0,N/A,Snow,Light Snow,350,2013-11-21 01:50:00
6:58 PM,17.6,10.4,73,30.24,10.0,North,26.5,38.0,0.00,,Overcast,350,2013-11-21 01:58:00
7:59 PM,17.4,8.8,69,30.30,10.0,NNW,28.8,35.7,N/A,,Overcast,340,2013-11-21 02:59:00
8:03 PM,17.6,8.6,68,30.16,10.0,North,26.5,36.8,N/A,Snow,Light Snow,350,2013-11-21 03:03:00
8:53 PM,15.8,10.4,79,30.19,0.5,NNW,28.8,38.0,N/A,Snow,Light Snow,340,2013-11-21 03:53:00
8:58 PM,15.8,10.4,79,30.34,1.0,NNW,20.7,38.0,0.00,Snow,Light Snow,340,2013-11-21 03:58:00
9:02 PM,15.8,10.4,79,30.20,1.0,NNW,28.8,34.5,N/A,Snow,Light Snow,340,2013-11-21 04:02:00
9:15 PM,15.8,8.6,73,30.21,3.0,NNW,28.8,39.1,N/A,Snow,Light Snow,340,2013-11-21 04:15:00
9:29 PM,14.0,8.6,79,30.21,2.0,NNW,24.2,35.7,N/A,Snow,Light Snow,340,2013-11-21 04:29:00
9:35 PM,14.0,8.6,79,30.22,3.0,NNW,26.5,36.8,N/A,Snow,Light Snow,340,2013-11-21 04:35:00
9:52 PM,14.0,8.6,79,30.22,3.0,NNW,26.5,36.8,N/A,Snow,Light Snow,330,2013-11-21 04:52:00
9:58 PM,14.5,8.6,77,30.38,3.0,NNW,31.1,38.0,0.00,Snow,Light Snow,330,2013-11-21 04:58:00
9:59 PM,14.0,8.6,79,30.22,3.0,NNW,26.5,38.0,N/A,Snow,Light Snow,330,2013-11-21 04:59:00
10:04 PM,14.0,8.6,79,30.22,2.5,NNW,28.8,38.0,N/A,Snow,Light Snow,330,2013-11-21 05:04:00
10:14 PM,14.0,8.6,79,30.23,3.0,NNW,26.5,38.0,N/A,Snow,Light Snow,340,2013-11-21 05:14:00
10:29 PM,14.0,8.6,79,30.24,3.0,NNW,21.9,34.5,N/A,Snow,Light Snow,340,2013-11-21 05:29:00
10:46 PM,14.0,6.8,73,30.24,6.0,NNW,31.1,39.1,N/A,Snow,Light Snow,330,2013-11-21 05:46:00
10:58 PM,13.1,5.7,72,30.42,9.0,NNW,24.2,38.0,0.00,Snow,Light Snow,340,2013-11-21 05:58:00
11:58 PM,12.6,5.2,72,30.44,9.0,NNW,24.2,33.4,0.00,Snow,Light Snow,340,2013-11-21 06:58:00